Lugano, Switzerland

9:51 AM CET on January 23, 2018 (GMT +0100)
Lugano

Weather History for LSZA - April, 2013

Change the Weather History Date:

Tuesday, April 30, 2013

  Actual Average Record
Temperature  
Mean Temperature 56 °F -  
Max Temperature 60 °F 65 °F 75 °F (2005)
Min Temperature 51 °F 51 °F 37 °F (2017)
Degree Days  
Heating Degree Days 10    
Growing Degree Days 6 (Base 50)    
Moisture  
Dew Point 55 °F    
Average Humidity 97    
Maximum Humidity 100    
Minimum Humidity 88    
Precipitation  
Precipitation 0.04 in 0.26 in - ()
Sea Level Pressure  
Sea Level Pressure 30.12 in    
Wind  
Wind Speed 2 mph ()    
Max Wind Speed 5 mph    
Max Gust Speed -    
Visibility 4.1 miles    
Events Rain    
Averages and records for this station are not official NWS values.
T = Trace of Precipitation, MM = Missing Value Source: Averaged Metar Reports

Daily Weather History Graph

Daily Weather History Graph

Search for Another Location

Airport or City:

Trip Planner

Search our weather history database for the weather conditions in past years. The results will help you decide how hot, cold, wet, or windy it might be!

Date:

Astronomy

Apr. 30, 2013 Rise Set
Actual Time 6:12 AM CEST 8:30 PM CEST
Civil Twilight 5:39 AM CEST 9:03 PM CEST
Nautical Twilight 4:58 AM CEST 9:45 PM CEST
Astronomical Twilight 4:12 AM CEST 10:31 PM CEST
Moon 12:44 AM CEST (4/30) 10:18 AM CEST (4/30)
Length of Visible Light 15h 24m
Length of Day
14h 18m
Waning Gibbous, 73% of the Moon is Illuminated
Apr 30
Waning Gibbous
May 2
Last Quarter
May 10
New
May 18
First Quarter
May 25
Full

Hourly Weather History & Observations

Time (CEST) Temp. Dew Point Humidity Pressure Visibility Wind Dir Wind Speed Gust Speed Precip Events Conditions
12:00 AM 54 °F 54 °F 99% 30.17 in - SSE 1.2 mph - -  
12:20 AM 53.6 °F 53.6 °F 100% 30.15 in - Variable 1.2 mph - N/A   Mostly Cloudy
12:50 AM 51.8 °F 51.8 °F 100% 30.15 in 3.1 mi SSE 1.2 mph - N/A   Overcast
1:00 AM 54 °F 54 °F 100% 30.16 in - NNE 2.3 mph - -  
1:20 AM 51.8 °F 51.8 °F 100% 30.15 in - North 3.5 mph - N/A   Mostly Cloudy
1:50 AM 51.8 °F 51.8 °F 100% 30.12 in 2.5 mi Variable 2.3 mph - N/A   Overcast
2:20 AM 51.8 °F 51.8 °F 100% 30.12 in - Variable 1.2 mph - N/A   Scattered Clouds
2:50 AM 51.8 °F 51.8 °F 100% 30.12 in 1.6 mi Variable 1.2 mph - N/A   Mist
3:00 AM 54 °F 54 °F 98% 30.14 in - North 2.3 mph - -  
3:20 AM 51.8 °F 51.8 °F 100% 30.12 in 1.2 mi NNW 3.5 mph - N/A   Mostly Cloudy
3:50 AM 51.8 °F 51.8 °F 100% 30.12 in 1.6 mi Variable 1.2 mph - N/A   Scattered Clouds
4:00 AM 54 °F 53 °F 97% 30.13 in - Calm Calm - -  
4:20 AM 51.8 °F 51.8 °F 100% 30.12 in - Variable 1.2 mph - N/A   Scattered Clouds
4:50 AM 51.8 °F 51.8 °F 100% 30.12 in - North 4.6 mph - N/A   Mist
5:20 AM 51.8 °F 51.8 °F 100% 30.09 in 3.1 mi Variable 2.3 mph - N/A   Mostly Cloudy
5:50 AM 51.8 °F 51.8 °F 100% 30.12 in - Variable 2.3 mph - N/A Rain Light Rain
6:00 AM 53 °F 53 °F 100% 30.12 in - NE 1.2 mph - -  
6:20 AM 51.8 °F 51.8 °F 100% 30.12 in 1.8 mi South 3.5 mph - N/A Rain Light Rain
6:36 AM 53.6 °F 53.6 °F 100% 30.12 in 3.1 mi Variable 1.2 mph - N/A Rain Rain
6:50 AM 53.6 °F 53.6 °F 100% 30.12 in 3.1 mi Variable 1.2 mph - N/A Rain Rain
7:00 AM 54 °F 54 °F 98% 30.13 in - North 2.3 mph - -  
7:20 AM 53.6 °F 53.6 °F 100% 30.12 in 3.7 mi NNW 3.5 mph - N/A Rain Light Rain
7:50 AM 53.6 °F 53.6 °F 100% 30.09 in 4.3 mi North 4.6 mph - N/A Rain Light Rain
8:20 AM 55.4 °F 53.6 °F 94% 30.09 in 4.3 mi West 2.3 mph - N/A Rain Light Rain
8:50 AM 53.6 °F 53.6 °F 100% 30.09 in 4.3 mi Variable 2.3 mph - N/A Rain Light Rain
9:00 AM 55 °F 54 °F 95% 30.12 in - WSW 1.2 mph - -  
9:20 AM 55.4 °F 55.4 °F 100% 30.09 in 4.3 mi Variable 1.2 mph - N/A Rain Rain
9:50 AM 55.4 °F 55.4 °F 100% 30.09 in 5.0 mi Variable 2.3 mph - N/A Rain Light Rain
10:00 AM 55 °F 54 °F 95% 30.11 in - SW 1.2 mph - -  
10:20 AM 55.4 °F 55.4 °F 100% 30.09 in 6.2 mi South 3.5 mph - N/A Rain Light Rain
10:50 AM 55.4 °F 55.4 °F 100% 30.09 in 3.7 mi Variable 1.2 mph - N/A Rain Rain
11:20 AM 55.4 °F 55.4 °F 100% 30.12 in 3.7 mi Variable 2.3 mph - N/A Rain Rain
11:50 AM 55.4 °F 55.4 °F 100% 30.12 in 3.7 mi Variable 1.2 mph - N/A Rain Light Rain
12:00 PM 56 °F 55 °F 95% 30.12 in - NW 1.2 mph - -  
12:20 PM 55.4 °F 55.4 °F 100% 30.12 in 4.3 mi Variable 2.3 mph - N/A Rain Light Rain
12:50 PM 55.4 °F 55.4 °F 100% 30.12 in 4.3 mi Variable 2.3 mph - N/A Rain Rain
1:00 PM 56 °F 55 °F 95% 30.12 in - SE 1.2 mph - -  
1:20 PM 57.2 °F 55.4 °F 94% 30.12 in 4.3 mi Variable 1.2 mph - N/A Rain Rain
1:50 PM 57.2 °F 55.4 °F 94% 30.12 in 4.3 mi Variable 1.2 mph - N/A Rain Rain
2:20 PM 57.2 °F 57.2 °F 100% 30.12 in 4.3 mi Calm Calm - N/A   Mostly Cloudy
2:50 PM 59.0 °F 57.2 °F 94% 30.12 in 5.0 mi Variable 2.3 mph - N/A   Mostly Cloudy
3:00 PM 57 °F 56 °F 94% 30.12 in - SE 1.2 mph - -  
3:20 PM 59.0 °F 57.2 °F 94% 30.12 in 5.0 mi Variable 3.5 mph - N/A   Mostly Cloudy
3:50 PM 59.0 °F 57.2 °F 94% 30.12 in 5.0 mi South 3.5 mph - N/A   Mostly Cloudy
4:00 PM 59 °F 56 °F 88% 30.11 in - SE 1.2 mph - -  
4:20 PM 60.8 °F 57.2 °F 88% 30.09 in 5.0 mi Variable 1.2 mph - N/A   Mostly Cloudy
4:50 PM 60.8 °F 57.2 °F 88% 30.09 in 5.6 mi Variable 2.3 mph - N/A   Mostly Cloudy
5:20 PM 60.8 °F 57.2 °F 88% 30.09 in 5.6 mi Variable 1.2 mph - N/A   Mostly Cloudy
5:50 PM 59.0 °F 57.2 °F 94% 30.09 in 5.6 mi South 2.3 mph - N/A   Mostly Cloudy
6:00 PM 59 °F 57 °F 90% 30.10 in - NW 1.2 mph - -  
6:20 PM 59.0 °F 57.2 °F 94% 30.09 in 5.6 mi South 3.5 mph - N/A   Mostly Cloudy
6:50 PM 59.0 °F 57.2 °F 94% 30.09 in 5.6 mi South 2.3 mph - N/A   Mostly Cloudy
7:00 PM 58 °F 57 °F 94% 30.11 in - SW 1.2 mph - -  
7:20 PM 59.0 °F 57.2 °F 94% 30.09 in 5.6 mi SSW 2.3 mph - N/A   Mostly Cloudy
7:50 PM 59.0 °F 57.2 °F 94% 30.12 in 5.6 mi Variable 1.2 mph - N/A   Mostly Cloudy
8:20 PM 59.0 °F 57.2 °F 94% 30.12 in 5.6 mi South 2.3 mph - N/A   Mostly Cloudy
8:50 PM 57.2 °F 57.2 °F 100% 30.12 in 5.6 mi SSE 2.3 mph - N/A   Mostly Cloudy
9:00 PM 56 °F 55 °F 95% 30.14 in - South 1.2 mph - -  
9:20 PM 57.2 °F 57.2 °F 100% 30.12 in 5.6 mi South 1.2 mph - N/A   Mostly Cloudy
9:50 PM 57.2 °F 57.2 °F 100% 30.15 in 5.6 mi Variable 1.2 mph - N/A   Mostly Cloudy
10:00 PM 57 °F 56 °F 96% 30.15 in - Calm Calm - -  
10:20 PM 55.4 °F 55.4 °F 100% 30.15 in - Variable 2.3 mph - N/A   Overcast
10:50 PM 55.4 °F 55.4 °F 100% 30.15 in 1.4 mi Variable 1.2 mph - N/A   Overcast
11:20 PM 55.4 °F 55.4 °F 100% 30.15 in 1.8 mi Variable 2.3 mph - N/A   Overcast
11:50 PM 55.4 °F 55.4 °F 100% 30.15 in 1.7 mi Variable 2.3 mph - N/A   Overcast